#timestamp,LO_Frequency,Hit,StdDev 
1561669215.9,286047004.2,N
1561669235.7,286047000.1,N
1561669255.6,286046999.4,N
1561669275.4,286046997.7,N
1561669295.2,286046996.0,N
1561669315.1,286046994.3,N
1561669316.0,286046994.3,N
1561669335.8,286046992.8,N
1561669355.7,286046990.4,N
1561669375.5,286046987.8,Y
1561669395.3,286046988.5,P
1561669415.2,286046987.6,P
1561669435.0,286046986.2,P
1561669435.9,286046986.2,Y
1561669455.8,286046995.9,P
1561669475.6,286046994.7,N
1561669495.4,286046990.1,P
1561669515.3,286046988.6,Y
1561669535.1,286046998.6,P
1561669555.9,286046997.5,N
1561669575.7,286046995.1,N
1561669595.5,286046993.8,N
1561669615.4,286046993.7,N
1561669635.2,286046992.0,Y
1561669655.0,286046997.1,P
1561669655.9,286046997.1,P
1561669675.8,286046997.0,P
1561669695.6,286046996.8,Y
1561669715.5,286047000.5,P
1561669735.3,286047001.9,N
1561669755.1,286046999.8,N
1561669775.9,286047004.0,N
1561669795.7,286047004.2,N
1561669815.5,286047004.4,N
1561669835.4,286047005.1,N
1561669855.2,286047007.0,N
1561669875.1,286047010.1,Y
1561669876.0,286047010.1,P
1561669895.8,286047010.6,N
1561669915.6,286047011.2,P
1561669935.5,286047012.5,Y
1561669955.3,286047005.2,P
1561669975.2,286047007.6,P
1561669995.9,286047006.2,P
1561670015.7,286047009.3,Y
1561670035.6,286047005.5,P
1561670055.4,286047008.2,P
1561670075.2,286047010.3,P
1561670095.1,286047009.9,Y
1561670096.0,286047009.9,P
1561670115.8,286047004.3,P
1561670135.7,286047003.3,N
1561670155.5,286047004.5,N
1561670175.3,286047007.4,N
1561670195.2,286047008.2,Y
1561670215.0,286047004.3,P
1561670215.9,286047004.3,P
1561670235.8,286047001.8,N
1561670255.6,286047004.3,N
1561670275.4,286047004.2,N
1561670295.3,286047002.0,N
1561670315.1,286047003.5,N
1561670335.9,286047006.0,Y
1561670355.7,286047000.2,P
1561670375.5,286047000.1,N
1561670395.4,286047000.4,N
1561670415.2,286047000.4,N
1561670435.0,286047001.4,N
1561670435.9,286047001.4,N
1561670455.8,286047001.6,N
1561670475.6,286047002.8,N
1561670495.5,286047001.8,N
1561670515.3,286047003.1,N
1561670535.1,286047003.3,N
1561670555.9,286047002.9,N
1561670575.7,286047005.9,Y
1561670595.5,286047004.1,P
1561670615.4,286047002.1,N
1561670635.2,286047001.3,N
1561670655.1,286047003.5,Y
1561670656.0,286047003.5,P
1561670675.8,286046999.7,N
1561670695.6,286047001.6,N
1561670715.5,286047002.1,N
1561670735.3,286047005.9,Y
1561670755.2,286047003.6,P
1561670775.9,286047003.0,P
1561670795.7,286047003.6,P
1561670815.6,286047001.3,N
1561670835.4,286047001.4,N
1561670855.2,286047001.8,N
1561670875.1,286047001.4,N
1561670876.0,286047001.4,N
1561670895.8,286047001.7,N
1561670915.7,286047003.7,Y
1561670935.5,286047003.9,P
1561670955.3,286047006.0,P
1561670975.2,286047003.4,N
1561670995.0,286047006.9,Y
1561670995.9,286047006.9,P
1561671015.8,286047001.8,N
1561671035.6,286047003.5,N
1561671055.4,286047005.3,N
1561671075.3,286047006.1,Y
1561671095.1,286047005.7,P
1561671115.9,286047005.9,P
1561671135.7,286047001.8,N
1561671155.5,286047002.0,N
1561671175.4,286047000.0,N
1561671195.2,286047002.8,N
1561671215.1,286047003.6,N
1561671216.0,286047003.6,N
1561671235.8,286047005.8,Y
1561671255.6,286047000.6,P
1561671275.5,286047000.4,N
1561671295.3,286047002.8,N
1561671315.1,286047001.7,N
1561671335.9,286047003.6,Y
1561671355.7,286047004.1,P
1561671375.6,286047004.2,P
1561671395.4,286047000.5,N
1561671415.2,286047002.4,N
1561671435.1,286046999.8,N
1561671436.0,286046999.8,N
1561671455.8,286046999.7,N
1561671475.7,286046999.9,N
1561671495.5,286047001.9,N
1561671515.3,286047003.9,N
1561671535.2,286047003.2,N
1561671555.9,286047003.9,N
1561671575.7,286047003.2,N
1561671595.6,286047001.3,N
1561671615.4,286047002.4,N
1561671635.3,286047000.9,N
1561671655.1,286047000.2,N
1561671656.0,286047000.2,N
1561671675.8,286047001.1,N
1561671695.7,286047001.0,N
1561671715.5,286047000.9,N
1561671735.3,286046998.8,N
1561671755.2,286046997.6,N
1561671775.0,286046996.1,N
1561671775.9,286046996.1,N
1561671795.8,286046995.8,N
1561671815.6,286046996.1,N
1561671835.4,286046996.2,N
1561671855.3,286046994.6,N
1561671875.1,286046994.3,N
1561671876.0,286046994.3,N
1561671895.8,286046992.1,N
1561671915.7,286046994.7,N
1561671935.5,286046993.9,N
1561671955.4,286046994.0,N
1561671975.2,286046993.3,N
1561671995.0,286046996.1,N
1561671995.9,286046996.1,N
1561672015.8,286046995.2,N
1561672035.6,286046995.6,N
1561672055.4,286046997.9,N
1561672075.3,286046996.8,N
1561672095.1,286046997.0,N
1561672115.9,286047000.2,N
1561672135.7,286047000.1,N
1561672155.5,286047000.2,N
1561672175.4,286047001.2,N
1561672195.2,286047000.3,N
1561672215.0,286047002.2,N
1561672215.9,286047002.2,N
1561672235.8,286047002.6,N
1561672255.6,286047002.2,N
1561672275.5,286047001.7,N
1561672295.3,286046999.9,N
1561672315.1,286047000.9,N
1561672335.9,286047000.3,N
1561672355.7,286046998.2,N
1561672375.5,286047000.4,N
1561672395.4,286047000.1,N
1561672415.2,286047000.3,N
1561672435.1,286047000.3,N
1561672436.0,286047000.3,N
1561672455.8,286047001.7,N
1561672475.6,286047000.5,N
1561672495.5,286047002.6,N
1561672515.3,286047002.1,N
1561672535.1,286047002.0,N
1561672555.9,286047001.4,N
1561672575.7,286047000.8,N
1561672595.6,286046998.1,N
1561672615.4,286046999.3,N
1561672635.2,286046997.0,N
1561672655.1,286046998.5,N
1561672656.0,286046998.5,N
1561672675.8,286047000.2,N
1561672695.6,286047000.9,N
1561672715.5,286046998.2,N
1561672735.3,286046997.1,N
1561672755.2,286046994.9,Y
1561672775.9,286046997.7,P
1561672795.7,286046994.5,P
